Weather History for KENW - August, 2012

Change the Weather History Date:

Sunday, August 26, 2012

  Actual Average Record
Temperature  
Mean Temperature 73 °F -  
Max Temperature 79 °F 78 °F 97 °F (1953)
Min Temperature 68 °F 61 °F 48 °F (1964)
Cooling Degree Days 8    
Growing Degree Days 23 (Base 50)    
Moisture  
Dew Point 68 °F    
Average Humidity 85    
Maximum Humidity 97    
Minimum Humidity 68    
Precipitation  
Precipitation 0.14 in - - ()
Sea Level Pressure  
Sea Level Pressure 30.01 in    
Wind  
Wind Speed 5 mph (SSW)    
Max Wind Speed 12 mph    
Max Gust Speed 18 mph    
Visibility 8 miles    
Events Fog , Rain    
Averages and records for this station are not official NWS values.
T = Trace of Precipitation, MM = Missing Value Source: NWS Daily Summary

Daily Weather History Graph

Daily Weather History Graph

Search for Another Location

Airport or City:

Trip Planner

Search our weather history database for the weather conditions in past years. The results will help you decide how hot, cold, wet, or windy it might be!

Date:

Astronomy

Aug. 26, 2012 Rise Set
Actual Time 6:10 AM CDT 7:35 PM CDT
Civil Twilight 5:41 AM CDT 8:04 PM CDT
Nautical Twilight 5:05 AM CDT 8:39 PM CDT
Astronomical Twilight 4:28 AM CDT 9:17 PM CDT
Moon 4:09 PM CDT (8/26) 12:47 AM CDT (8/26)
Length of Visible Light 14h 23m
Length of Day
13h 24m
Waxing Gibbous, 73% of the Moon is Illuminated
Aug 26
Waxing Gibbous
Aug 31
Full
Sep 8
Last Quarter
Sep 15
New
Sep 22
First Quarter

Hourly Weather History & Observations

Time (CDT) Temp. Dew Point Humidity Pressure Visibility Wind Dir Wind Speed Gust Speed Precip Events Conditions
12:53 AM 73.0 °F 64.9 °F 76% 30.01 in 10.0 mi SSE 3.5 mph - N/A   Clear
1:53 AM 73.0 °F 64.9 °F 76% 30.00 in 10.0 mi South 5.8 mph - N/A   Clear
2:53 AM 73.0 °F 62.1 °F 68% 30.00 in 10.0 mi South 6.9 mph - N/A   Clear
3:53 AM 72.0 °F 61.0 °F 68% 30.00 in 10.0 mi South 4.6 mph - N/A   Clear
4:53 AM 71.1 °F 61.0 °F 70% 30.01 in 10.0 mi South 4.6 mph - N/A   Clear
5:53 AM 71.1 °F 61.0 °F 70% 30.02 in 10.0 mi SSW 4.6 mph - N/A   Clear
7:53 AM 73.0 °F 63.0 °F 71% 30.03 in 10.0 mi SSW 5.8 mph - N/A   Clear
8:53 AM 75.0 °F 66.0 °F 73% 30.03 in 10.0 mi South 9.2 mph - N/A   Clear
9:53 AM 78.1 °F 66.9 °F 68% 30.02 in 10.0 mi South 11.5 mph - N/A   Mostly Cloudy
10:53 AM 75.9 °F 66.9 °F 74% 30.03 in 3.0 mi SW 11.5 mph 18.4 mph 0.00 in Rain Light Rain
11:10 AM 75.2 °F 66.2 °F 73% 30.04 in 5.0 mi SW 8.1 mph - 0.00 in Rain Light Rain
11:53 AM 75.0 °F 69.1 °F 82% 30.03 in 5.0 mi SSW 10.4 mph - 0.01 in Rain Light Rain
12:53 PM 72.0 °F 68.0 °F 87% 30.02 in 6.0 mi South 9.2 mph - 0.03 in Rain Light Rain
1:53 PM 73.0 °F 70.0 °F 90% 30.02 in 7.0 mi SSW 9.2 mph - 0.02 in Rain Light Rain
2:53 PM 73.0 °F 70.0 °F 90% 30.01 in 6.0 mi SSW 9.2 mph - 0.02 in Rain Light Rain
3:53 PM 73.0 °F 70.0 °F 90% 29.98 in 8.0 mi South 6.9 mph - 0.04 in Rain Light Rain
4:53 PM 73.0 °F 70.0 °F 90% 29.99 in 9.0 mi SSW 6.9 mph - 0.00 in Rain Light Rain
5:13 PM 73.4 °F 69.8 °F 88% 30.00 in 8.0 mi SSW 6.9 mph - 0.01 in Rain Light Rain
5:53 PM 73.9 °F 71.1 °F 91% 29.98 in 9.0 mi South 4.6 mph - 0.01 in Rain Light Rain
6:00 PM 73.4 °F 69.8 °F 88% 29.99 in 10.0 mi Calm Calm - 0.00 in Rain Light Rain
6:53 PM 73.0 °F 70.0 °F 90% 29.99 in 8.0 mi Calm Calm - 0.00 in Rain Light Rain
7:00 PM 73.4 °F 69.8 °F 88% 29.99 in 8.0 mi SSW 4.6 mph - 0.00 in Rain Light Rain
7:01 PM 73.4 °F 69.8 °F 88% 29.99 in 8.0 mi SSW 4.6 mph - 0.00 in Rain Light Rain
7:29 PM 73.4 °F 69.8 °F 88% 29.99 in 7.0 mi Calm Calm - 0.01 in Rain Light Rain
7:53 PM 72.0 °F 70.0 °F 93% 29.98 in 9.0 mi SSW 5.8 mph - 0.01 in   Mostly Cloudy
8:11 PM 71.6 °F 69.8 °F 94% 30.00 in 10.0 mi SW 3.5 mph - N/A   Mostly Cloudy
8:53 PM 72.0 °F 70.0 °F 93% 30.01 in 9.0 mi SSW 3.5 mph - N/A   Mostly Cloudy
9:00 PM 71.6 °F 69.8 °F 94% 30.02 in 10.0 mi SSW 5.8 mph - N/A   Overcast
9:53 PM 71.1 °F 70.0 °F 96% 30.02 in 8.0 mi WSW 3.5 mph - N/A   Overcast
10:11 PM 71.6 °F 69.8 °F 94% 30.03 in 7.0 mi WSW 3.5 mph - N/A   Overcast
10:53 PM 70.0 °F 69.1 °F 97% 30.01 in 5.0 mi Calm Calm - N/A   Partly Cloudy
11:45 PM 68.0 °F 66.2 °F 94% 30.02 in 0.5 mi Calm Calm - N/A Fog Fog
11:50 PM 68.0 °F 66.2 °F 94% 30.01 in 0.2 mi Calm Calm - N/A Fog Fog
11:53 PM 68.0 °F 66.9 °F 96% 30.01 in 0.2 mi Calm Calm - N/A Fog Fog